WetterOnline ( http://www.wetteronline.de )

Wetter aktuell Öhringen

Aktuelles Wetter: Öhringen (277m)

6-stündlich | Neueste Meldungen
Ortszeit Temperatur Wetter
Di, 22.01. 7:00 -6.3° C bedeckt
Di, 22.01. 1:00 -6.3° C Nebel
Mo, 21.01. 19:00 -5.0° C wolkenlos
Mo, 21.01. 13:00 -3.6° C bedeckt
Mo, 21.01. 7:00 -5.9° C wolkenlos
Mo, 21.01. 1:00 -4.5° C leicht bewölkt
So, 20.01. 19:00 -2.7° C bedeckt
So, 20.01. 13:00 -2.7° C wolkig
Ortszeit Temperatur Wetter
Di, 22.01. 10:00 -4.2° C wolkig
Di, 22.01. 9:40 -4.1° C leicht bewölkt
Di, 22.01. 9:30 -5.3° C leicht bewölkt
Di, 22.01. 9:20 -5.3° C leicht bewölkt
Di, 22.01. 9:10 -6.0° C wolkenlos
Di, 22.01. 9:00 -6.6° C wolkenlos
Di, 22.01. 8:50 -6.6° C wolkenlos
Di, 22.01. 8:30 -7.1° C wolkenlos
Di, 22.01. 8:00 -6.8° C leicht bewölkt
Di, 22.01. 7:30 -6.2° C bedeckt
Di, 22.01. 7:00 -6.3° C bedeckt
Ortszeit Relative Feuchte Sichtweite
Di, 22.01. 7:00 90% 4.9 km
Di, 22.01. 1:00 95% 100 m
Mo, 21.01. 19:00 90% 5.0 km
Mo, 21.01. 13:00 83% 5.0 km
Mo, 21.01. 7:00 85% 14 km
Mo, 21.01. 1:00 85% 11 km
So, 20.01. 19:00 83% 9 km
So, 20.01. 13:00 81% 8 km
Ortszeit Relative Feuchte Sichtweite
Di, 22.01. 10:00 87% 5.0 km
Di, 22.01. 9:40 87% -
Di, 22.01. 9:30 90% 5.0 km
Di, 22.01. 9:20 90% -
Di, 22.01. 9:10 90% -
Di, 22.01. 9:00 92% 5.0 km
Di, 22.01. 8:50 92% -
Di, 22.01. 8:30 93% 5.0 km
Di, 22.01. 8:00 90% 4.3 km
Di, 22.01. 7:30 90% 5.0 km
Di, 22.01. 7:00 90% 4.9 km
Ortszeit Niederschlagsmenge Niederschlagsart
Di, 22.01. 7:00 0.0 l/m2 in 12 Std. -
Di, 22.01. 1:00 0.0 l/m2 in 6 Std. -
Mo, 21.01. 19:00 0.0 l/m2 in 12 Std. -
Mo, 21.01. 13:00 0.0 l/m2 in 6 Std. -
Mo, 21.01. 7:00 0.0 l/m2 in 12 Std. -
Mo, 21.01. 1:00 0.0 l/m2 in 6 Std. -
So, 20.01. 19:00 0.0 l/m2 in 12 Std. -
So, 20.01. 13:00 0.0 l/m2 in 6 Std. -
Ortszeit Niederschlagsmenge Niederschlagsart
Di, 22.01. 10:00 0.0 l/m2 in 1 Std. -
Di, 22.01. 9:40 keine Meldung -
Di, 22.01. 9:30 0.0 l/m2 in 1 Std. -
Di, 22.01. 9:20 keine Meldung -
Di, 22.01. 9:10 keine Meldung -
Di, 22.01. 9:00 0.0 l/m2 in 1 Std. -
Di, 22.01. 8:50 keine Meldung -
Di, 22.01. 8:30 0.0 l/m2 in 1 Std. -
Di, 22.01. 8:00 0.0 l/m2 in 1 Std. -
Di, 22.01. 7:30 0.0 l/m2 in 1 Std. -
Di, 22.01. 7:00 0.0 l/m2 in 1 Std. -
Ortszeit Stärke Spitze Richtung
km/h Bft. km/h Grad Sektor
Di, 22.01. 7:00 4 1 7 280° W
Di, 22.01. 1:00 4 1 11 70° O
Mo, 21.01. 19:00 7 2 14 70° O
Mo, 21.01. 13:00 7 2 25 130° SO
Mo, 21.01. 7:00 11 2 22 60° NO
Mo, 21.01. 1:00 15 3 24 70° O
So, 20.01. 19:00 11 2 25 70° O
So, 20.01. 13:00 14 3 18 70° O
Ortszeit Stärke Spitze Richtung
km/h Bft. km/h Grad Sektor
Di, 22.01. 10:00 0 0 4 - -
Di, 22.01. 9:40 0 0 - 70° O
Di, 22.01. 9:30 4 1 4 50° NO
Di, 22.01. 9:20 4 1 - 50° NO
Di, 22.01. 9:10 4 1 - 50° NO
Di, 22.01. 9:00 4 1 4 50° NO
Di, 22.01. 8:50 4 1 - 50° NO
Di, 22.01. 8:30 2 1 4 100° O
Di, 22.01. 8:00 4 1 7 140° SO
Di, 22.01. 7:30 0 0 4 - -
Di, 22.01. 7:00 4 1 4 280° W
Ortszeit Untergrenze Bedeckung Gattung
total tief tief mittel hoch
Di, 22.01. 7:00 480 m 8/8 8/8 - - -
Di, 22.01. 1:00 <30 m 8/8 8/8 - - -
Mo, 21.01. 19:00 - 0/8 0/8 - - -
Mo, 21.01. 13:00 210 m 8/8 8/8 - - -
Mo, 21.01. 7:00 - 0/8 0/8 - - -
Mo, 21.01. 1:00 390 m 3/8 3/8 - - -
So, 20.01. 19:00 1380 m 8/8 8/8 - - -
So, 20.01. 13:00 1500 m 5/8 5/8 - - -
Ortszeit Bedeckungsgrad in Achtel und Wolkenuntergrenze
Di, 22.01. 10:00 5(600m)
Di, 22.01. 9:40 2(570m)
Di, 22.01. 9:30 2(570m)
Di, 22.01. 9:20 2(570m)
Di, 22.01. 9:10 keine Wolken
Di, 22.01. 9:00 keine Wolken
Di, 22.01. 8:50 keine Wolken
Di, 22.01. 8:30 keine Wolken
Di, 22.01. 8:00 3(420m)
Di, 22.01. 7:30 8(420m)
Di, 22.01. 7:00 8(480m)
Ortszeit Luftdruck NN (hPa) Tendenz (hPa in 3 Std.)
Di, 22.01. 7:00 1017 - 1,8
Di, 22.01. 1:00 1021 - 1,0
Mo, 21.01. 19:00 1022 + 0,1
Mo, 21.01. 13:00 1023 0,0
Mo, 21.01. 7:00 1023 + 0,2
Mo, 21.01. 1:00 1022 + 1,0
So, 20.01. 19:00 1019 + 1,4
So, 20.01. 13:00 1017 + 0,9
Ortszeit Luftdruck NN (hPa) Tendenz (hPa in 3 Std.)
Di, 22.01. 10:00 1015 - 1,4
Di, 22.01. 9:40 1015 keine Meldung
Di, 22.01. 9:30 1015 - 1,6
Di, 22.01. 9:20 1015 keine Meldung
Di, 22.01. 9:10 1016 keine Meldung
Di, 22.01. 9:00 1016 - 1,7
Di, 22.01. 8:50 1016 keine Meldung
Di, 22.01. 8:30 1016 - 1,6
Di, 22.01. 8:00 1016 - 1,6
Di, 22.01. 7:30 1017 - 1,6
Di, 22.01. 7:00 1017 - 1,8
Ortszeit Schneehöhe (cm)
Di, 22.01. 7:00 0
Di, 22.01. 1:00 0
Mo, 21.01. 19:00 0
Mo, 21.01. 13:00 0
Mo, 21.01. 7:00 0
Mo, 21.01. 1:00 0
So, 20.01. 19:00 0
So, 20.01. 13:00 0
Ortszeit Schneehöhe (cm)
Di, 22.01. 10:00 0
Di, 22.01. 9:40 0
Di, 22.01. 9:30 0
Di, 22.01. 9:20 0
Di, 22.01. 9:10 0
Di, 22.01. 9:00 0
Di, 22.01. 8:50 0
Di, 22.01. 8:30 0
Di, 22.01. 8:00 0
Di, 22.01. 7:30 0
Di, 22.01. 7:00 0
Link zu dieser Seite / Seite empfehlen

Das Wetter in ...